Regional Weather Roundup
Issued by NWS Albany, NY

Home | Current Version | Previous Version | Text Only | Print | Product List | Glossary On
Versions: 1 2 3 4 5 6 7 8 9 10 11 12 13 14 15 16 17 18 19 20 21 22 23 24 25 26 27 28 29 30 31 32 33 34 35 36 37 38 39 40 41 42 43 44 45 46 47 48 49 50
000
ASUS41 KALY 271010
RWRALY

NEW YORK STATE HOURLY WEATHER ROUNDUP
NATIONAL WEATHER SERVICE ALBANY NY
600 AM EDT MON APR 27 2015

NOTE: "FAIR" INDICATES FEW OR NO CLOUDS BELOW 12,000 FEET WITH NO
SIGNIFICANT WEATHER AND/OR NO OBSTRUCTIONS TO VISIBILITY.

NYZ032-033-038>043-046>054-057>066-NYZ062>081-271100-
EAST


CITY           SKY/WX    TMP DP  RH WIND       PRES   REMARKS
ALBANY         CLOUDY    45  33  63 NW5       29.68S
GLENS FALLS    CLOUDY    45  35  68 N8        29.67R
POUGHKEEPSIE   CLOUDY    46  34  62 CALM      29.67R
NEWBURGH       MOCLDY    45  34  65 CALM      29.67S
MONTGOMERY     CLOUDY    46  32  58 NW5       29.66S
WHITE PLAINS   CLOUDY    46  31  55 NW8       29.64S
ISLIP          CLOUDY    49  32  52 NW6       29.63R
NEW YORK CITY  CLOUDY    49  33  54 NW7       29.66S
CENTRAL PARK   CLOUDY    49  30  48 NW5       29.69S
$$

NYZ005>009-017-018-044>046-055-056-271100-
CENTRAL


CITY           SKY/WX    TMP DP  RH WIND       PRES   REMARKS
FULTON         CLOUDY    41  35  79 NW5       29.74S
SYRACUSE       CLOUDY    42  36  79 W6        29.74R
ROME           CLOUDY    39  34  82 CALM      29.73S
ELMIRA         CLOUDY    42  35  76 W6        29.73S
BINGHAMTON     CLOUDY    38  34  85 NW6       29.69S WCI  33
MONTICELLO     CLOUDY    39  30  70 NW8       29.68S WCI  34
$$

NYZ026>034-041>043-271100-
NORTH


CITY           SKY/WX    TMP DP  RH WIND       PRES   REMARKS
WATERTOWN      CLOUDY    39  35  86 N7        29.74R WCI  34
FORT DRUM      NOT AVBL
MASSENA        CLOUDY    40  35  83 W7        29.75R
SARANAC LAKE   MIX PCPN  36  35  96 VRB5      29.66R WCI  32
PLATTSBURGH    CLOUDY    42  38  85 W3        29.69R
$$

NYZ001>004-010>016-019>021-271100-
WEST


CITY           SKY/WX    TMP DP  RH WIND       PRES   REMARKS
NIAGARA FALLS  LGT RAIN  40  37  89 N10       29.79R WCI  33
BUFFALO        CLOUDY    42  36  79 NW7       29.78S
DUNKIRK        CLOUDY    41  34  76 SW6       29.81R
JAMESTOWN      CLOUDY    37  30  75 W7        29.77S WCI  32
WELLSVILLE     MOCLDY    34  29  82 NW8       29.75R WCI  27
ROCHESTER      CLOUDY    43  34  70 NW7       29.77R
PENN YAN       CLOUDY    43  34  70 W3        29.74R
$$

             KEY
       WCI = WIND CHILL INDEX
       VSB = VISIBILITY
       HX  = HEAT INDEX
$$


USA.gov is the U.S. government's official web portal to all federal, state and local government web resources and services.